K4DXB Weather Reports


time (UTC)temp
C
wind
direction
speed
KPH
gust
KPH
rain 1hr
cm
rain 24hr
cm
rain mn
cm
humidity
%
barometer
mb
20260905103024 21 0 0.0 0.0 0.00 0.00 0.00 7 1010.6
20260905100150 21 0 0.0 0.0 0.00 0.00 0.00 7 1010.7
20260905100024 21 0 0.0 0.0 0.00 0.00 0.00 7 1010.7
20260905094524 21 0 0.0 0.0 0.00 0.00 0.00 7 1010.5
20260905093024 21 0 0.0 0.0 0.00 0.00 0.00 7 1010.5
20260905090024 21 0 0.0 0.0 0.00 0.00 0.00 7 1010.4
20260905084524 21 0 0.0 0.0 0.00 0.00 0.00 7 1010.3
20260905083025 21 0 0.0 0.0 0.00 0.03 0.00 7 1010.3
20260905080024 22 0 0.0 0.0 0.00 0.25 0.00 7 1010.4
20260905074524 22 0 0.0 0.0 0.00 0.25 0.00 7 1010.5
20260905073024 21 0 0.0 0.0 0.00 0.25 0.00 7 1010.4
20260905070024 21 0 0.0 0.0 0.00 0.25 0.00 7 1010.6
20260905064524 21 0 0.0 0.0 0.00 0.25 0.00 7 1010.6
20260905063024 21 0 0.0 0.0 0.00 0.30 0.00 7 1010.7
20260905060024 21 0 0.0 0.0 0.00 0.33 0.00 7 1010.8
20260905053024 21 0 0.0 0.0 0.00 0.46 0.00 7 1011.2
20260905044525 21 0 0.0 0.0 0.00 0.46 0.00 8 1011.4
20260905043024 21 0 0.0 0.0 0.00 0.46 0.00 8 1011.5
20260905040025 22 0 0.0 0.0 0.00 0.46 0.00 8 1011.6
20260905034524 22 0 0.0 0.0 0.00 0.46 0.00 8 1011.6
20260905033024 22 0 0.0 0.0 0.00 0.46 0.00 8 1011.5
20260905024524 22 0 0.0 0.0 0.00 0.46 0.00 8 1011.4
20260905023024 22 0 0.0 0.0 0.00 0.46 0.00 8 1011.4
20260905013024 22 0 0.0 0.0 0.00 0.46 0.00 7 1011.6
20260905004525 24 0 0.0 0.0 0.00 0.46 0.00 7 1011.1
20260905003024 24 0 0.0 0.0 0.00 0.46 0.00 7 1011.0
20260905000024 25 0 0.0 0.0 0.00 0.46 0.46 7 1011.0
20260904234524 26 0 0.0 0.0 0.00 0.46 0.46 6 1011.0
20260904230024 28 0 0.0 0.0 0.00 0.46 0.46 5 1010.9
20260904224524 29 0 0.0 0.0 0.00 0.46 0.46 5 1011.1
20260904220024 30 0 0.0 0.0 0.00 0.46 0.46 5 1010.8
20260904214524 30 0 0.0 0.0 0.00 0.46 0.46 5 1010.7
20260904210024 32 248 1.6 4.8 0.00 0.46 0.46 4 1010.7
20260904204524 32 0 0.0 0.0 0.00 0.46 0.46 4 1010.7
20260904203024 32 0 0.0 0.0 0.00 0.46 0.46 5 1010.9
20260904200024 32 0 0.0 0.0 0.00 0.46 0.46 5 1011.3
20260904193025 30 287 0.0 8.0 0.00 0.46 0.46 5 1011.5
20260904190025 32 146 3.2 9.7 0.00 0.46 0.46 5 1011.8
20260904184525 31 261 3.2 12.9 0.00 0.46 0.46 5 1011.8
20260904183025 31 245 3.2 11.3 0.00 0.46 0.46 5 1011.9
20260904180025 31 0 0.0 0.0 0.00 0.46 0.46 5 1011.8
20260904174525 30 0 0.0 0.0 0.00 0.46 0.46 5 1011.9
20260904173025 31 311 0.0 4.8 0.00 0.46 0.46 5 1011.9
20260904170025 31 0 0.0 0.0 0.00 0.46 0.46 5 1012.1
20260904164525 30 0 0.0 0.0 0.00 0.46 0.46 5 1012.0
20260904163024 30 180 0.0 3.2 0.00 0.46 0.46 5 1012.1
20260904160025 30 262 0.0 8.0 0.00 0.46 0.46 5 1012.1
20260904153025 29 198 0.0 6.4 0.00 0.46 0.46 6 1012.4
20260904150025 29 0 0.0 0.0 0.00 0.46 0.46 6 1012.6
20260904144525 28 247 1.6 12.9 0.00 0.46 0.46 6 1012.4
20260904143025 28 332 0.0 6.4 0.00 0.46 0.46 6 1012.4
20260904134525 26 270 0.0 6.4 0.00 0.46 0.46 7 1012.1
20260904133025 26 0 0.0 0.0 0.00 0.46 0.46 7 1012.3
20260904130024 25 67 0.0 1.6 0.00 0.46 0.46 8 1012.3
20260904124525 25 0 0.0 0.0 0.00 0.46 0.46 8 1012.1
20260904123024 24 0 0.0 0.0 0.00 0.46 0.46 8 1012.1
20260904120025 23 0 0.0 0.0 0.00 0.46 0.46 9 1012.0
20260904113025 22 0 0.0 0.0 0.00 0.46 0.46 9 1011.9
20260904105354 22 0 0.0 0.0 0.00 0.46 0.46 9 1011.3